Cleveland, OH

2:34 AM EDT on August 20, 2017 (GMT -0400)
Cleveland-Hopkins International

Weather History for KCLE - November, 2012

Change the Weather History Date:

Saturday, November 3, 2012

  Actual Average Record
Temperature  
Mean Temperature 41 °F 48 °F  
Max Temperature 42 °F 56 °F 79 °F (1961)
Min Temperature 39 °F 41 °F 19 °F (1951)
Degree Days  
Heating Degree Days 24 17  
Month to date heating degree days 73 49  
Since 1 July heating degree days 584 509  
Cooling Degree Days 0 0  
Month to date cooling degree days 0 0  
Year to date cooling degree days 1096 816  
Moisture  
Dew Point 31 °F    
Average Humidity 71    
Maximum Humidity 79    
Minimum Humidity 62    
Precipitation  
Precipitation T in 0.11 in 0.87 in (1985)
Month to date precipitation 0.18 0.35  
Year to date precipitation 40.11 32.77  
Snow  
Snow 0.00 in 0.10 in - ()
Month to date snowfall 0.0 0.2  
Since 1 July snowfall 0.0 0.4  
Since 1 September snowfall 0.0 0.4  
Snow Depth 0.00 in    
Sea Level Pressure  
Sea Level Pressure 30.15 in    
Wind  
Wind Speed 9 mph (NW)    
Max Wind Speed 16 mph    
Max Gust Speed 22 mph    
Visibility 10 miles    
Events Rain    
T = Trace of Precipitation, MM = Missing Value Source: NWS Daily Summary

Daily Weather History Graph

Daily Weather History Graph

Search for Another Location

Airport or City:

Trip Planner

Search our weather history database for the weather conditions in past years. The results will help you decide how hot, cold, wet, or windy it might be!

Date:

Astronomy

Nov. 03, 2012 Rise Set
Actual Time 8:01 AM EDT 6:19 PM EDT
Civil Twilight 7:33 AM EDT 6:48 PM EDT
Nautical Twilight 7:00 AM EDT 7:21 PM EDT
Astronomical Twilight 6:27 AM EDT 7:53 PM EDT
Moon 9:58 PM EDT (11/3) 12:06 PM EDT (11/3)
Length of Visible Light 11h 15m
Length of Day
10h 17m
Waning Gibbous, 80% of the Moon is Illuminated
Nov 3
Waning Gibbous
Nov 6
Last Quarter
Nov 13
New
Nov 20
First Quarter
Nov 28
Full

Hourly Weather History & Observations

Time (EDT) Temp. Windchill Dew Point Humidity Pressure Visibility Wind Dir Wind Speed Gust Speed Precip Events Conditions
12:51 AM 39.2 °F 32.0 °F 28.4 °F 65% 30.06 in 10.0 mi NNW 11.5 mph 17.3 mph N/A   Overcast
1:51 AM 39.9 °F 32.9 °F 28.9 °F 65% 30.09 in 10.0 mi NW 11.5 mph - 0.00 in   Overcast
2:51 AM 39.9 °F 33.4 °F 28.9 °F 65% 30.09 in 10.0 mi WNW 10.4 mph - 0.00 in Rain Light Rain
3:51 AM 39.9 °F 32.1 °F 28.9 °F 65% 30.10 in 10.0 mi NNW 13.8 mph - 0.00 in   Overcast
4:51 AM 39.0 °F 31.8 °F 28.9 °F 67% 30.10 in 10.0 mi NW 11.5 mph - N/A   Overcast
5:51 AM 39.0 °F 33.4 °F 30.0 °F 70% 30.12 in 10.0 mi WNW 8.1 mph - N/A   Overcast
6:51 AM 39.9 °F 33.9 °F 30.9 °F 70% 30.13 in 10.0 mi NW 9.2 mph - N/A   Overcast
7:06 AM 39.2 °F 32.5 °F 30.2 °F 70% 30.12 in 10.0 mi NNW 10.4 mph - N/A   Overcast
7:51 AM 39.0 °F 32.8 °F 30.9 °F 73% 30.14 in 10.0 mi NW 9.2 mph - N/A   Overcast
8:51 AM 39.9 °F 33.9 °F 32.0 °F 73% 30.16 in 10.0 mi NW 9.2 mph - N/A   Overcast
9:17 AM 39.2 °F 34.2 °F 33.8 °F 81% 30.15 in 10.0 mi NW 6.9 mph - 0.00 in Rain Light Rain
9:51 AM 39.9 °F 33.9 °F 33.1 °F 77% 30.17 in 10.0 mi NW 9.2 mph - 0.00 in   Overcast
10:46 AM 41.0 °F 34.7 °F 32.0 °F 70% 30.16 in 10.0 mi WNW 10.4 mph - N/A   Overcast
10:51 AM 39.9 °F 34.5 °F 32.0 °F 73% 30.18 in 10.0 mi NW 8.1 mph - N/A   Overcast
11:51 AM 42.1 °F 35.7 °F 33.1 °F 70% 30.19 in 10.0 mi NW 11.5 mph - N/A   Overcast
12:00 PM 41.0 °F 34.7 °F 33.8 °F 76% 30.17 in 10.0 mi NW 10.4 mph - N/A   Overcast
12:51 PM 41.0 °F 35.2 °F 32.0 °F 70% 30.18 in 10.0 mi WNW 9.2 mph - N/A   Overcast
1:51 PM 42.8 °F 37.0 °F 30.2 °F 61% 30.16 in 10.0 mi NW 10.4 mph - N/A   Overcast
2:51 PM 42.1 °F 37.1 °F 30.9 °F 65% 30.17 in 10.0 mi WNW 8.1 mph - N/A   Overcast
3:51 PM 42.1 °F 38.4 °F 30.9 °F 65% 30.17 in 10.0 mi NW 5.8 mph - N/A   Overcast
4:51 PM 41.0 °F 35.2 °F 30.9 °F 67% 30.17 in 10.0 mi WNW 9.2 mph - N/A   Overcast
5:51 PM 41.0 °F 37.1 °F 30.9 °F 67% 30.17 in 10.0 mi West 5.8 mph - N/A   Overcast
6:51 PM 39.9 °F 35.8 °F 30.9 °F 70% 30.17 in 10.0 mi West 5.8 mph - N/A   Overcast
7:51 PM 39.9 °F 35.1 °F 32.0 °F 73% 30.17 in 10.0 mi West 6.9 mph - N/A   Overcast
8:51 PM 41.0 °F 37.1 °F 32.0 °F 70% 30.17 in 10.0 mi NNW 5.8 mph - N/A   Overcast
9:51 PM 42.1 °F 37.1 °F 30.9 °F 65% 30.17 in 10.0 mi North 8.1 mph - N/A   Overcast
10:51 PM 41.0 °F 34.7 °F 30.0 °F 65% 30.17 in 10.0 mi NNE 10.4 mph - N/A   Overcast
11:51 PM 39.9 °F 33.9 °F 28.9 °F 65% 30.17 in 10.0 mi NNE 9.2 mph - N/A   Overcast